Location: ??
(34.9170°N, 135.5016°E)
Time: 12:36:58
(UTC+00:00)

SL-19 R/B - Pass Details

Date: 29 October 2020
Orbit: 358 x 808 km, 99.4° (Epoch: 27 November)

Event Time Altitude Azimuth Distance (km) Brightness Sun altitude
Rises 20:00:25 0° 10° (N) 2,198 7.5 -16.2°
Reaches altitude 10° 20:02:18 10° 6° (N) 1,363 6.3 -15.8°
Maximum altitude 20:05:07 60° 285° (WNW) 440 3.5 -15.3°
Drops below altitude 10° 20:08:08 10° 205° (SSW) 1,456 6.3 -14.6°
Sets 20:10:13 0° 201° (SSW) 2,371 7.4 -14.2°
